Location: Newark
(44.3681°N, 100.3364°W)
Time: 13:41:37
(UTC+00:00)

S-56A Canister/Altair - Pass Details

Date: 01 March 2020
Orbit: 634 x 2498 km, 38.9° (Epoch: 29 March)

Event Time Altitude Azimuth Distance (km) Brightness Sun altitude
Rises 12:48:03 0° 184° (S) 4,575 11.5 -6.1°
Reaches altitude 10° 12:52:05 10° 167° (SSE) 3,926 11.4 -5.4°
Maximum altitude 12:58:45 19° 128° (SE) 3,736 12.0 -4.2°
Drops below altitude 10° 13:06:42 10° 91° (E) 4,841 13.6 -2.8°
Sets 13:12:30 0° 77° (ENE) 6,060 13.6 -1.7°
